Jackpot

Texas Poker Multi Jackpot System

Kini Telah hadir Jackpot SUPER ROYAL FLUSH

Kini Telah hadir Jackpot 2000 (khusus table VIP keatas).

Ikutilah global jackpot yang tersedia di system kami, dengan system jackpot terbaru dan pertama di indonesia, anda dapat membeli jackpot dengan harga 100 rupiah saja dan menangkan hadiahnya hingga puluhan juta rupiah.

Jackpot bukanlah suatu keharusan untuk dibeli, namun kami memberikan suatu fitur tambahan untuk member tercinta dari www.zienpoker.net.

Terdapat tiga pilihan harga jackpot yang bisa anda beli yaitu :100,500,1000 dan 2000(khusus table VIP Keatas) rupiah.

Hadiah dari Multi jackpot system www.zienpoker.net

  1. full house x 10 harga jackpot yang anda beli.
      (contoh:anda membeli 1000 maka:1000 X10 = 10.000)
  2. four of kind x 250 harga jackpot yang anda beli
      (contoh:anda membeli 1000 maka:1000 X250 = 250.000)
  3. Straight flush x 1200
      (contoh:anda membeli 1000 maka:1000 X1200 = 1.200.000)
  4. Royal flush x 10000 harga jackpot yang anda beli
      (contoh:anda membeli 1000 maka:1000 X10000 = 10.000.000)
  5. SUPER ROYAL FLUSH x 30000 harga jackpot yang anda beli
      (contoh:anda membeli 1000 maka:1000 X30000 = 30.000.000)

Kondisi kartu

  1. full house adalah kondisi kartu dimana kartu anda dan kartu tengah dengan total 7 kartu bisa mendapatkan nilai 5 kartu dengan kombinasi 1 tris(three of kind) dan 1 pair, contoh 3 kartu 10 dan 2 kartu 5
  2. Four of kind adalah kondisi kartu dimana kartu anda dan kartu tengah dengan total 7 kartu bisa mendapatkan nilai 5 kartu dengan kombinasi 4 kartu yang sama jumlah dan 1 kartu apapun juga contoh anda mendapatkan 4 buah kartu angka 3 dan 1 kartu apapun.
  3. Staright flush adalah kondisi kartu dimana kartu anda dan kartu tengah dengan total 7 kartu bisa mendapatkan nilai 5 kartu dengan kombinasi seri / staright dengan kembang yang sama contoh : urutan kartu dari angka 5, 6, 7, 8 , 9 10 dengan kembang yg sama misalnya as hati
  4. Royal flush adalah kondisi kartu dimana kartu anda dan kartu tengah dengan total 7 kartu bisa mendapatkan nilai 5 kartu dengan kombinasi seri / staright dengan kembang yang sama tetapi kartu tersebut haruslah dimulai dari 10. contoh 10, Queen, Jack, King dan aces dengan kembang yang sama
  5. Super Royal flush adalah kondisi kartu dimana Kedua kartu anda digabung dengan 3 kartu pertama meja haruslah royal flush. contoh kartu anda 10,Queen kembang sama dan 3 kartu pertama meja adalah Jack, King dan aces dengan kembang yang sama

Demikian adalah penjelasan dari Multi Jackpot www.zienpoker.net terima kasih dan selamat bermain salam hoki dari kami

Texas Poker Jackpot Winner

TOP SUPER ROYAL FLUSH
No.TanggalNamaPriceWin
123/05 16:49MANTUNGGGSuper Royal flush6,000,000
223/05 12:44CRIZ05Super Royal flush6,000,000
323/05 06:58MEJEWSuper Royal flush15,000,000
423/05 04:35MIZA03Super Royal flush15,000,000
523/05 02:38CERPE12Super Royal flush30,000,000
TOP ROYAL FLUSH
No.TanggalNamaPriceWin
123/05 19:39BIANQRoyal flush2,000,000
223/05 19:39VION27Royal flush1,000,000
323/05 19:39ZETTEMPURRoyal flush5,000,000
423/05 19:39BAWON_77Royal flush2,000,000
523/05 19:30RAKET18Royal flush5,000,000
TOP STRAIGHT FLUSH
No.TanggalNamaPriceWin
123/05 19:48UPHICFLUSHStraight Flush120,000
223/05 19:48BOOOONNNN6Straight Flush1,200,000
323/05 19:47DUDI0509Straight Flush2,400,000
423/05 19:46XARTOMOROXStraight Flush240,000
523/05 19:46PUTAK99Straight Flush60,000
LATEST JACKPOT
No.TanggalNamaPriceWin
123/05 19:49SETAN5666Full House2,000
223/05 19:49SUSUJAHE22Full House5,000
323/05 19:49BODEX77Full House2,000
423/05 19:49DENSO123Full House2,000
523/05 19:49ASONE07Full House2,000
623/05 19:49NGENYOT789Full House10,000
723/05 19:49MINORI93Full House1,000
823/05 19:49G64Q8LZ9BGFull House2,000
923/05 19:49HAVANNA26Full House5,000
1023/05 19:49ALGHOZAFull House2,000
1123/05 19:49KALADU99Full House2,000
1223/05 19:49TAREEEK99Full House20,000
1323/05 19:49JAW_55Full House1,000
1423/05 19:49PEKCAK27Full House500
1523/05 19:49ROAHOQQFull House1,000
1623/05 19:49TOBE3YTAMFull House2,000
1723/05 19:49DES9Full House1,000
1823/05 19:49KLUMANJANGFull House5,000
1923/05 19:49RYAL21Full House5,000
2023/05 19:49CASPER011Full House5,000
2123/05 19:49BE68ULPMTGFull House2,000
2223/05 19:49PEAR33Full House10,000
2323/05 19:49RX254613Full House1,000
2423/05 19:48TYVOCI0MD8Full House1,000
2523/05 19:48FE3BC54DFour Of A Kind125,000
2623/05 19:48QECD8R7O26Full House5,000
2723/05 19:48EEBFEA88Four Of A Kind25,000
2823/05 19:48NOTE69Full House1,000
2923/05 19:48CLOE10Full House2,000
3023/05 19:48ANCE01Four Of A Kind500,000
3123/05 19:48PAPUWOWFull House5,000
3223/05 19:48KOTOK45Full House5,000
3323/05 19:48DJAROT44Full House5,000
3423/05 19:48SUDUANG73Full House10,000
3523/05 19:48W2W2W1W1Full House2,000
3623/05 19:48MAMANKDEFull House2,000
3723/05 19:48TAHANA12Full House1,000
3823/05 19:48C1286C4BFull House1,000
3923/05 19:48D06BD382Full House5,000
4023/05 19:48JENNY27091Full House20,000
4123/05 19:48ACU09Full House2,000
4223/05 19:48DESTAMILANFull House5,000
4323/05 19:48SAMSIR9999Full House5,000
4423/05 19:48LA1981Full House5,000
4523/05 19:48JOSS333355Full House10,000
4623/05 19:48BEGI007Full House2,000
4723/05 19:48QIYAS789Full House2,000
4823/05 19:48BRAVO82Four Of A Kind50,000
4923/05 19:48WANDERLEYFull House2,000
5023/05 19:48OYONK5OCFull House5,000

Domino Multi Jackpot System

Ikutilah global jackpot yang tersedia di system kami, dengan system jackpot terbaru dan pertama di indonesia, anda dapat membeli jackpot dengan harga 100 rupiah saja dan menangkan hadiahnya hingga puluhan juta rupiah.

Jackpot bukanlah suatu keharusan untuk dibeli, namun kami memberikan suatu fitur tambahan untuk member tercinta dari www.zienpoker.net.

Terdapat tiga pilihan harga jackpot yang bisa anda beli yaitu :100,500 dan 1000 rupiah.

Hadiah dari Multi jackpot system www.zienpoker.net

  1. Murni Kecil x 50 harga jackpot yang anda beli.
      (contoh:anda membeli 1000 maka:1000 X 50 = 50.000)
  2. Murni Besar x 50 harga jackpot yang anda beli
      (contoh:anda membeli 1000 maka:1000 X 50 = 50.000)
  3. BALAK x 100 harga jackpot yang anda beli
      (contoh:anda membeli 1000 maka:1000 X 100 = 100.000)
  4. ENAM DEWA x 6666 harga jackpot yang anda beli
      (contoh:anda membeli 1000 maka:1000 X 6666 = 6.666.000)

Demikian adalah penjelasan dari Multi Jackpot www.zienpoker.net terima kasih dan selamat bermain salam hoki dari kami

Domino Jackpot Winner

TOP ENAM DEWA
No.TanggalNamaPriceWin
123/05 16:47SAHADAD99murni enam6,666,000
223/05 15:22LOPEKBUGImurni enam6,666,000
323/05 14:42BAMBUPETUXmurni enam6,666,000
423/05 14:10JUNMET02murni enam666,600
523/05 11:42RAWU6666murni enam6,666,000
TOP BALAK
No.TanggalNamaPriceWin
123/05 19:47MASTER091balak100,000
223/05 19:46ALPARIZI12balak100,000
323/05 19:39HRTNbalak100,000
423/05 19:38IIBRAAM889balak100,000
523/05 19:31PUTRY0123balak100,000
LATEST JACKPOT
No.TanggalNamaPriceWin
123/05 19:49GEVIN238murni kecil5,000
223/05 19:48PUKIAT1murni besar25,000
323/05 19:47MASTER091balak100,000
423/05 19:46LOLOLO9murni kecil5,000
523/05 19:46ALPARIZI12balak100,000
623/05 19:45MARYONO487murni kecil25,000
723/05 19:45RIMBUNmurni kecil50,000
823/05 19:45SM4LL99murni besar50,000
923/05 19:45UWANNKK11murni kecil5,000
1023/05 19:45SULIS09murni kecil50,000
1123/05 19:45KONA53murni besar50,000
1223/05 19:44N4G4EM4Smurni besar50,000
1323/05 19:43TEKOS1234murni kecil5,000
1423/05 19:43TRASI212murni kecil25,000
1523/05 19:42WIRO505murni kecil50,000
1623/05 19:42JOB_111murni kecil50,000
1723/05 19:41IRGUN552murni kecil50,000
1823/05 19:41ZOKER05454murni kecil5,000
1923/05 19:41ALEXYOPImurni kecil5,000
2023/05 19:41HONGTAISEmurni besar25,000
2123/05 19:41CAPIE89murni besar50,000
2223/05 19:40PUMA5588murni besar5,000
2323/05 19:40MADHOKKYmurni kecil5,000
2423/05 19:39BIRU91murni besar5,000
2523/05 19:39DANGER9999murni kecil25,000
2623/05 19:39HRTNbalak100,000
2723/05 19:38OSCAR0905murni kecil50,000
2823/05 19:38IIBRAAM889balak100,000
2923/05 19:38BBJ123murni besar25,000
3023/05 19:38HOKIX9murni besar25,000
3123/05 19:38ALFIIEBOYmurni besar5,000
3223/05 19:36M4CH4R0123murni kecil25,000
3323/05 19:35WONGPOLDAmurni kecil5,000
3423/05 19:35PUKIAT1murni besar25,000
3523/05 19:35QQMUJUR66murni besar50,000
3623/05 19:35DADANGCEPmurni besar5,000
3723/05 19:35BIGBOS998murni besar5,000
3823/05 19:35POKERMU99lucky9910,000
3923/05 19:34M1NEBDOJ7Jmurni besar50,000
4023/05 19:34REYY666murni besar25,000
4123/05 19:34DNZ01murni besar25,000
4223/05 19:34BOTIL555murni besar25,000
4323/05 19:33QWERTY6789murni kecil50,000
4423/05 19:32HAR08murni kecil50,000
4523/05 19:32CHULHAMSmurni besar25,000
4623/05 19:32RIFQONmurni kecil50,000
4723/05 19:32SIOHOALUmurni besar50,000
4823/05 19:31PUTRY0123balak100,000
4923/05 19:31MONOX123_murni kecil50,000
5023/05 19:31ARY2001lucky99200,000

Ceme Multi Jackpot System

Jackpot dilihat dari gabungan kartu pemain dengan kartu bandar. Bandar harus membeli jackpot sebanyak jumlah player yang sedang duduk. Sebagai contoh bila terdapat 3 pemain duduk bermain, dan bandar memutuskan untuk membeli jackpot Rp 1.000, maka pada periode tersebut bandar akan membeli jackpot sebanyak 3xRp1.000 = Rp3.000.

Jackpot bukanlah suatu keharusan untuk dibeli, namun kami memberikan suatu fitur tambahan untuk member tercinta dari www.zienpoker.net.

Terdapat tiga pilihan harga jackpot yang bisa anda beli yaitu :100,500 dan 1000 rupiah.

Hadiah dari Multi jackpot system www.zienpoker.net

  1. Murni Kecil x 50 harga jackpot yang anda beli.
      (contoh:anda membeli 1000 maka:1000 X 50 = 50.000)
  2. Murni Besar x 50 harga jackpot yang anda beli
      (contoh:anda membeli 1000 maka:1000 X 50 = 50.000)
  3. BALAK x 200 harga jackpot yang anda beli
      (contoh:anda membeli 1000 maka:1000 X 200 = 200.000)
  4. ENAM DEWA x 6666 harga jackpot yang anda beli
      (contoh:anda membeli 1000 maka:1000 X 6666 = 6.666.000)

Demikian adalah penjelasan dari Multi Jackpot www.zienpoker.net terima kasih dan selamat bermain salam hoki dari kami

Ceme Jackpot Winner

TOP ENAM DEWA
No.TanggalNamaPriceWin
123/05 19:46HAPPY688murni enam6,666,000
223/05 19:38LENDING01murni enam6,666,000
323/05 19:28WAKAKA21murni enam6,666,000
423/05 19:24CUE3LLLmurni enam6,666,000
523/05 19:24RZ45AAmurni enam6,666,000
TOP BALAK
No.TanggalNamaPriceWin
123/05 19:49MARDIARTOHbalak200,000
223/05 19:47EFANDYbalak200,000
323/05 19:47LK4DAMYJAZZbalak200,000
423/05 19:47JAYAA112balak200,000
523/05 19:46KADEK47balak200,000
LATEST JACKPOT
No.TanggalNamaPriceWin
123/05 19:49SUNZ1245murni kecil50,000
223/05 19:49MERCOOONmurni kecil25,000
323/05 19:49MARDIARTOHbalak200,000
423/05 19:48NZLIRIK65Pmurni besar5,000
523/05 19:48MONDAYUYEmurni kecil50,000
623/05 19:48BUTUT6666murni besar25,000
723/05 19:48HAFIZHMUHmurni kecil50,000
823/05 19:48KIMUNG069murni kecil50,000
923/05 19:47MONSJACK77murni besar25,000
1023/05 19:47NOL81murni besar25,000
1123/05 19:47DAKJ4L88murni kecil25,000
1223/05 19:47HQ240483murni besar50,000
1323/05 19:47LIKA_LIKU8murni besar50,000
1423/05 19:47UMAKKATAKmurni kecil25,000
1523/05 19:47EFANDYbalak200,000
1623/05 19:47LK4DAMYJAZZbalak200,000
1723/05 19:47JAYAA112balak200,000
1823/05 19:47NAKAL009murni kecil50,000
1923/05 19:47JAYENG99murni besar50,000
2023/05 19:47JAYARIMA45murni kecil50,000
2123/05 19:46HAPPY688murni enam6,666,000
2223/05 19:46BEREBARA09murni besar50,000
2323/05 19:46GASAXJEmurni besar25,000
2423/05 19:46C51RIAH482murni kecil50,000
2523/05 19:46BP881239murni kecil50,000
2623/05 19:46JAYARIMA45murni besar50,000
2723/05 19:46QV8OEL497Umurni besar25,000
2823/05 19:46DAKJ4L88murni kecil25,000
2923/05 19:46KADEK47balak200,000
3023/05 19:46TITITE69balak200,000
3123/05 19:46JM2balak200,000
3223/05 19:45HERIMAS55murni kecil25,000
3323/05 19:45ENONS9248murni kecil25,000
3423/05 19:45CIPHUNTERmurni kecil25,000
3523/05 19:45EN4MDW44murni besar50,000
3623/05 19:45WAYGITUmurni besar50,000
3723/05 19:45KALPAS10murni besar5,000
3823/05 19:45SEPHIA_LEEmurni besar50,000
3923/05 19:45TRE3DIATASmurni besar5,000
4023/05 19:44P04F53JLDCmurni besar5,000
4123/05 19:44RY8F3EZI3Fmurni besar50,000
4223/05 19:44A42YU446murni kecil25,000
4323/05 19:44BABAM13murni kecil5,000
4423/05 19:44A42YU446murni kecil25,000
4523/05 19:44ONIHOKKI1balak200,000
4623/05 19:44ORCA321murni besar25,000
4723/05 19:44HAPPY688murni kecil50,000
4823/05 19:44AMIE26murni kecil50,000
4923/05 19:44BEREBARA09murni kecil50,000
5023/05 19:44REGAN168murni kecil50,000